Current Version              Previous Version:    01  02  03  04  05  06  07  08  09  10  11  12  13  14  15  16  17  18  19  20  21  22  23  24  25  26  27  28  29  30  
   31  32  33  34  35  36  37  38  39  40  41  42  43  44  45  46  47  48  49  50  51  52  53  54  55  56  57  58  59  60  

[Printable]
015
ASUS44 KLUB 301810
RWRTX
WEST TEXAS WEATHER ROUNDUP
NATIONAL WEATHER SERVICE LUBBOCK TX
100 PM CDT SAT AUG 30 2014

NOTE: "FAIR" INDICATES FEW OR NO CLOUDS BELOW 12,000 FEET WITH NO
SIGNIFICANT WEATHER AND/OR OBSTRUCTIONS TO VISIBILITY.

TXZ004-006>008-010-012-014-016-OKZ002-301900-
TEXAS PANHANDLE/OKLAHOMA PANHANDLE

CITY           SKY/WX    TMP DP  RH WIND       PRES   REMARKS
AMARILLO       SUNNY     89  50  26 SW8G20    30.08F
BORGER         MOSUNNY   91  52  26 VRB6      30.04F
CANADIAN       SUNNY     88  63  43 CALM      30.00F
DALHART        SUNNY     88  56  33 SW15      30.08F
DUMAS          SUNNY     87  53  31 S9G16     30.07F
GUYMON         PTSUNNY   89  55  31 S13       30.01F
HEREFORD       SUNNY     89  52  28 SW8       30.09F
PAMPA          SUNNY     87  51  28 SW10      30.06F
PERRYTON       MOSUNNY   88  57  34 S8        30.03F
$$

TXZ026-029-035-045-048-301900-
SOUTHERN PANHANDLE/SOUTH PLAINS/ROLLING PLAINS

CITY           SKY/WX    TMP DP  RH WIND       PRES   REMARKS
CHILDRESS      SUNNY     87  68  52 W3        30.01F
SEMINOLE       SUNNY     91  51  25 SE7       30.08F
LUBBOCK        MOSUNNY   87  58  37 VRB6      30.07F
PLAINVIEW      MOSUNNY   87  57  36 SW6       30.07F
SNYDER         SUNNY     90  55  30 NE9       30.03F
$$

TXZ052-054-060>062-072-078-127-140-154-169-301900-
PERMIAN BASIN/CONCHO VALLEY/BIG COUNTRY/EDWARDS PLATEAU

CITY           SKY/WX    TMP DP  RH WIND       PRES   REMARKS
ABILENE        MOSUNNY   93  67  42 NW9       29.99F HX  96
BIG SPRING     SUNNY     88  61  40 NW6       30.06F
BRADY          SUNNY     90  66  45 CALM      29.98F
BROWNWOOD      SUNNY     90  68  48 SW5       29.97F
JUNCTION       SUNNY     91  66  43 SE8       29.97F
MIDLAND        SUNNY     91  60  35 E8        30.04F
ODESSA         SUNNY     89  53  29 W6        30.05F
SAN ANGELO     SUNNY     93  67  42 VRB6      29.99F HX  96
SONORA         SUNNY     88  68  51 E6        30.04F
SWEETWATER     MOSUNNY   87  66  49 N5        30.05F
WINK           SUNNY     95  47  19 VRB6      30.00F
$$

TXZ055-058-074-075-080-082-301900-
FAR WEST/SOUTHWEST MOUNTAINS/TRANS PECOS

CITY           SKY/WX    TMP DP  RH WIND       PRES   REMARKS
ALPINE         MOSUNNY   86  46  24 NW6       30.18F
DRYDEN           N/A     95  66  38 MISG      29.97F HX  98
EL PASO        MOSUNNY   88  48  25 S7        30.07F
FORT STOCKTON  MOSUNNY   90  54  29 CALM      30.03F
GUADALUPE PASS SUNNY     87  49  26 E9G18     30.22F
MARFA          MOSUNNY   84  54  34 N7        30.18F
PECOS          SUNNY     91  57  31 E6        30.01F
PRESIDIO       FAIR      91  60  35 NW3       30.01F
$$

TXZ014-016-019-021>030-083-301900
TEXAS TECH WEST TEXAS MESONET/TEXAS PANHANDLE/NORTHERN SOUTH PLAINS

CITY           SKY/WX    TMP DP  RH WIND       PRES   REMARKS
ABERNATHY 5ENE   N/A     90  49  25 W5        30.09F
AMARILLO 9NNE    N/A     89  56  32 SW7       30.05F
AMARILLO 7SSE    N/A     90  52  27 S13       30.09F
AMHERST 1NE      N/A     87  49  27 S6        30.10F
BOOTLEG 11WNW    N/A     87  51  28 S13       30.13F
CANADIAN 6E      N/A     88  63  42 SW2       29.99F
CAPROCK CYN SP   N/A     91  56  30 S6        30.03F
CHILDRESS 2NNE   N/A     87  68  52 NW5       30.00F
CLARENDON 2WSW   N/A     87  58  37 W5        30.04F
CLAUDE 12SW      N/A     85  58  39 S1        30.08F
DIMMITT 2NE      N/A     86  52  30 S8        30.10F
FLOYDADA 2NNE    N/A     85  59  41 SW2       30.07F
FRIONA 2NE       N/A     87  47  24 S8        30.11F
GOODLETT 3W      N/A     91  65  42 SW5       29.97F
HART 3N          N/A     86  56  36 S6        30.10F
HEREFORD 2NW     N/A     87  51  28 S6        30.09F
MCLEAN 1E        N/A     89  57  33 W7        30.02F
MEMPHIS 1NE      N/A     89  66  46 SW5       30.00F
MULESHOE 2SSW    N/A     90  42  18 SE6       30.10F
OLTON 6S         N/A     88  54  30 S5        30.09F
PALO DURO SP     N/A     90  53  27 S5        30.08F
PAMPA 2E         N/A     86  56  35 SW3       30.06F
PLAINVIEW 1S     N/A     87  58  37 NW2       30.08F
SILVERTON 7ESE   N/A     88  55  32 W3        30.07F
TULIA 2ENE       N/A     86  58  37 SW5       30.09F
TURKEY 2WSW      N/A     89  66  46 SW3       30.02F
UMBARGER 3NNE    N/A     88  49  25 SW13      30.09F
$$

TXZ033>036-039>041-045>048-301900
TEXAS TECH WEST TEXAS MESONET/SOUTH PLAINS

CITY           SKY/WX    TMP DP  RH WIND       PRES   REMARKS
AIKEN 3WSW       N/A     87  60  40 SE2       30.09F
ANDREWS 2NE      N/A     91  44  19 NE5       30.06F
ANTON 6SSW       N/A     87  54  32 SW3       30.08F
BROWNFIELD 2S    N/A     87  52  30 E3        30.08F
DENVR CTY 7WNW   N/A     87  48  25 SE6       30.09F
GAIL 2ESE        N/A     89  55  31 NE5       30.03F
LAMESA 2SE       N/A     89  58  34 NE5       30.06F
LEVELLAND 4S     N/A     88  53  30 S3        30.09F
LUBBOCK 3WNW     N/A     87  57  36 S6        30.08F
MORTON 1ENE      N/A     87  53  31 S2        30.10F
ODONNELL 1N      N/A     87  54  31 SE5       30.07F
PLAINS 3N        N/A     85  54  34 S6        30.10F
RALLS 1SE        N/A     85  61  44 SE1       30.08F
REESE CENTER     N/A     88  51  27 SE8       30.08F
SEAGRAVES 1SW    N/A     89  49  24 SE6       30.08F
SEMINOLE 2NNE    N/A     90  47  22 E5        30.07F
SLATON 2NE       N/A     85  62  44 S3        30.08F
SNYDER 3E        N/A     92  53  26 SE5       30.03S
SUNDOWN 8SW      N/A     88  51  27 S6        30.10F
TAHOKA 3NNE      N/A     90  56  32 S7        30.06F
WOLFFORTH 6SSW   N/A     88  56  34 S5        30.08F
$$

TXZ031-032-036>038-042>044-301900-
TEXAS TECH WEST TEXAS MESONET/ROLLING PLAINS

CITY           SKY/WX    TMP DP  RH WIND       PRES   REMARKS
ASPERMONT 3NE    N/A     89  67  47 N5        30.00S
FLUVANNA 3WNW    N/A     89  54  30 SE3       30.05S
GRAHAM 5SSW      N/A     88  53  30 S3        30.05F
GUTHRIE 10WSW    N/A     91  67  45 E5        30.00F
HASKELL 1NW      N/A     87  68  53 N6        29.98F
JAYTON 1SSE      N/A     88  67  49 N2        30.01F
KNOX CITY 3NW    N/A     91  65  41 N2        29.98F
LK A HENRY 1NW   N/A     91  53  27 CALM      30.02F
NORTHFIELD 1S    N/A     88  69  53 W2        30.00F
ODELL 4ENE       N/A     91  68  47 SW1       29.97F
PADUCAH 10SW     N/A     89  67  49 NW3       30.00F
POST 1NE         N/A     92  52  25 SE5       30.03F
RRING SPRGS 3N   N/A     88  65  46 SW5       30.04F
SEYMOUR 3NW      N/A     89  67  49 W3        29.97F
SPUR 1W          N/A     87  62  43 NW3       30.02F
WEINERT 2NNE     N/A     89  70  54 N3        29.98F
WHITE RVR 6NE    N/A     87  63  44 N2        30.05S
$$

TXZ052-054-060>062-072-078-127-140-154-169-301900-
TEXAS TECH WEST TEXAS MESONET/PERMIAN BASIN/
CONCHO VALLEY/BIG COUNTRY/EDWARDS PLATEAU

CITY           SKY/WX    TMP DP  RH WIND       PRES   REMARKS
JUNCTION 1SSW    N/A     91  68  46 SE2       29.97F HX  95
MERTZON 3NNE     N/A     90  67  45 NE8       30.00F
SAN ANGELO 7NW   N/A     89  65  44 N2        30.00F
STRLNG CT 4WSW   N/A     89  67  46 NE5       30.03F
ST LAWRNCE 5SW   N/A     87  64  45 SE1       30.04F
SWEETWATR 11SW   N/A     87  67  51 N7        30.04F
WALL 1E          N/A     87  68  53 N3        30.00F
$$

TXZ055-058-074-075-080-082-301900-
TEXAS TECH WEST TEXAS MESONET/FAR WEST/SOUTHWEST MOUNTAINS/TRANS PECOS

CITY           SKY/WX    TMP DP  RH WIND       PRES   REMARKS
PRSMN GAP BBNP   N/A     92  63  38 NE7       30.01F
GUADLPE MTN NP   N/A     82  48  30 N3        30.23S
$$